Regional Weather Roundup
Issued by NWS Grand Forks, ND

Home | Current Version | Previous Version | Graphics & Text | Print | Product List | Glossary On
Versions: 1 2 3 4 5 6 7 8 9 10 11 12 13 14 15 16 17 18 19 20 21 22 23 24 25 26 27 28 29 30 31 32 33 34 35 36 37 38 39 40 41 42 43 44 45 46 47 48 49 50
000
ASUS43 KFGF 271010
RWRFGF
PRAIRIE TO PINES  WEATHER ROUNDUP
NATIONAL WEATHER SERVICE EASTERN NORTH DAKOTA/GRAND FORKS ND
500 AM CDT TUE SEP 27 2016

 **SATELLITE DATA USED TO AUGMENT SKY COVER AT AUTOMATED STATIONS**
 *****  WEATHER ACROSS EASTERN NORTH DAKOTA  *****

CITY           SKY/WX    TMP DP  RH WIND       PRES   REMARKS
GRAND FORKS    CLEAR     41  36  82 W8        29.91S
GRAND FRKS AFB CLEAR     46  37  71 NW12      29.91F
DEVILS LAKE    CLEAR     40  36  86 NW8       29.97F
FARGO          CLEAR     39  33  79 W6        29.93R
WAHPETON ARPT  SUNNY     37  34  87 W8        29.95R
$$

 ***** WEATHER ACROSS CENTRAL AND WESTERN NORTH DAKOTA  *****

CITY           SKY/WX    TMP DP  RH WIND       PRES   REMARKS
BISMARCK       CLEAR     38  35  89 CALM      30.03S
MINOT          CLEAR     43  37  79 SW9       30.01S
JAMESTOWN      CLEAR     42  37  82 W7        29.98S
MINOT AFB      CLEAR     39  36  87 W7        30.00S
GARRISON         N/A     39  36  89 N3        30.02F
WILLISTON      CLEAR     39  36  89 CALM      30.02F
DICKINSON      CLEAR     44  38  79 W3        30.02F
HETTINGER      CLEAR     41  38  89 NW3       30.08F
$$

 *****  OTHER AIRPORT OBSERVATIONS IN OUR AREA  *****

CITY           SKY/WX    TMP DP  RH WIND       PRES   REMARKS
WALHALLA       FAIR      45  41  87 NW10      29.92F
GRAFTON AIRPOR FAIR      45  41  87 NW13      29.92F
VALLEY CITY AR FAIR      41  39  93 NW10      29.99R
CANDO          FAIR      37  37 100 NW9       30.00S
CAVALIER APRT  FAIR      45  39  81 NW8       29.91F
GWINNER        FAIR      43  37  81 W10       29.97S
SHEYENNE NWR     N/A     36  33  87 W7        29.95S
ROLLA          FAIR      39  32  75 N10       29.99S
 ***** THE ABOVE OBSERVATIONS ARE NON NWS ARE NOT QUALITY
       CONTROLLED AND MAY MIS-REPORT RAIN FOR SNOW...
$$

  *****  WEATHER ACROSS NORTHERN MINNESOTA  *****

CITY           SKY/WX    TMP DP  RH WIND       PRES   REMARKS
FLAG ISLAND    CLOUDY    52  43  71 NW30      29.76S
WARROAD        RAIN      50  46  87 VRB8      29.80S
ROSEAU         CLOUDY    48  43  81 W10G17    29.82R
HALLOCK        CLEAR     46  43  87 NW13      29.88S
THF RVR FALLS  CLEAR     45  41  86 NW12      29.88R
BAUDETTE       LGT RAIN  49  45  86 NW24G32   29.76R
WASKISH        CLOUDY    50  45  81 NW16G24   29.78S
CROOKSTON      CLEAR     43  39  87 NW9       29.90S
GREENBUSH NDAW   N/A     45  43  93 NW12        N/A
$$
  *****  WEATHER ACROSS CENTRAL AND WEST MINNESOTA  *****

CITY           SKY/WX    TMP DP  RH WIND       PRES   REMARKS
FOSSTON        CLEAR     43  39  87 W9        29.87S
BEMIDJI        CLOUDY    47  41  80 NW15      29.81S
PARK RAPIDS    PTCLDY    45  39  79 NW12      29.84S
ELBOW LAKE     FAIR      38  36  91 NW6       29.93S
WADENA         CLEAR     46  39  76 NW13G18   29.87R
DETROIT LAKES  CLEAR     46  41  81 NW15      29.90S
MOORHEAD       CLEAR     41  36  81 W8        29.93S
FERGUS FALLS   CLEAR     36  36 100 W3        29.96R
MORRIS MN      CLEAR     39  36  87 NW8       29.93R
STAPLES        CLEAR     45  39  81 W12       29.85S
$$
  *****  WEATHER ELSEWHERE ACROSS MINNESOTA  *****

CITY           SKY/WX    TMP DP  RH WIND       PRES   REMARKS
DULUTH         CLOUDY    50  45  83 NW17G30   29.67S
INTRNTL FALLS  CLOUDY    48  46  93 NW12      29.70R
ELY            CLOUDY    46  45  93 NW9G22    29.62S
CLOQUET        CLOUDY    50  43  76 W15G21    29.70S
WHEATON        CLEAR     45  39  81 NW6       29.97R
BRAINERD       CLOUDY    48  42  80 W16G24    29.82S
HIBBING        LGT RAIN  47  44  90 NW20G25   29.69F
ALEXANDRIA     CLEAR     44  39  82 W13       29.91S
SAINT CLOUD    CLEAR     48  41  76 W12       29.84S
MINNEAPOLIS    CLEAR     51  37  58 W12       29.84S
$$

  *****  WEATHER ACROSS SOUTH DAKOTA  *****

CITY           SKY/WX    TMP DP  RH WIND       PRES   REMARKS
SIOUX FALLS    CLEAR     46  37  71 W5        30.02S
BROOKINGS      CLEAR     44  36  73 CALM      29.99S
WATERTOWN      CLEAR     47  37  68 W7        29.99S
HURON          CLEAR     42  35  76 W6        30.02F
SISSETON         N/A     47  35  63 NW8       29.95R
ABERDEEN       CLEAR     43  36  76 W6        30.00S
MITCHELL       CLEAR     48  37  65 W8        30.04S
PIERRE         CLEAR     46  38  73 SW8       30.05S
MOBRIDGE       CLEAR     42  36  79 N3        30.01F
RAPID CITY     CLEAR     45  39  79 CALM      30.12F
$$

  *****  SOME WEATHER IN NEARBY STATES *****

CITY           SKY/WX    TMP DP  RH WIND       PRES   REMARKS
GLASGOW MT     CLEAR     48  43  82 SE8       29.97F
GREAT FALLS MT CLEAR     57  41  55 SW16      30.04F
CHEYENNE WY    CLOUDY    45  36  70 W8        30.28F
SCOTTSBLUFF NE CLOUDY    42  39  89 CALM      30.19F
OMAHA NE       CLEAR     55  46  71 CALM      30.04S
DES MOINES IA  CLEAR     51  44  77 W5        29.99S
DAVENPORT IA   CLEAR     49  42  77 W8        29.93F
CHICAGO IL     CLEAR     52  40  63 W10       29.84F
EAU CLAIRE WI  CLOUDY    52  42  69 W13G20    29.75F
LA CROSSE WI   CLEAR     55  38  52 W14       29.80F
$$

  *****  SOME NATIONAL WEATHER *****

CITY           SKY/WX    TMP DP  RH WIND       PRES   REMARKS
LA GUARDIA NY  LGT RAIN  68  63  84 W10       29.89S
RALEIGH NC     CLOUDY    68  66  93 W3        29.97F
ATLANTA GA     MOCLDY    71  67  87 S3        29.97F
NEW ORLEANS LA CLOUDY    79  72  79 N6        29.93S
OKLAHOMA CITY  CLOUDY    54  50  86 SW3       30.15F
ALBUQUERQUE NM MOCLDY    56  34  43 N8        30.32F
SALT LAKE CITY CLEAR     53  48  83 SE8       30.23S
LOS ANGELES CA PTCLDY    73  51  46 E5        29.83F
BOISE ID       CLEAR     59  42  53 S7        30.10S
SEATTLE WA     MOCLDY    64  55  72 NE7       30.13R
$$

*** WEATHER ACROSS MANITOBA...SASKATCHEWAN AND ONTARIO ***
                ***ONTARIO***

CITY           SKY/WX    TMP DP  RH WIND       PRES   REMARKS
GERALDTON      FOG       50  50 100 N3        29.38R VSB 3/8
THUNDER BAY    LGT RAIN  48  46  93 NW12      29.46R
SIOUX LOOKOUT  DRIZZLE   45  43  93 NW14G23   29.59R
TORONTO        CLEAR     50  43  76 SW5       29.80F
BIG TROUT LK   LGT RAIN  45  43  93 N9        29.57S FOG
PICKLE LAKE    NOT AVBL
DRYDEN         LGT RAIN  46  45  93 NW9G18    29.64R FOG
KENORA         LGT RAIN  46  43  87 NW16G24   29.73S
$$
                *** MANITOBA***

CITY           SKY/WX    TMP DP  RH WIND       PRES   REMARKS
BRANDON        CLEAR     36  32  87 W8        29.98S
DAUPHIN        CLEAR     34  32  93 W7        29.98S
ISLAND LAKE    LGT RAIN  45  43  93 N16G26    29.81R FOG
PILOT MOUND      N/A     37  32  81 W6          N/A
THE PAS        CLEAR     39  37  93 SE3       29.99S
THOMPSON       CLOUDY    41  36  81 N9        29.97S
WINNIPEG       PTCLDY    45  43  93 NW13      29.88S
LYNN LAKE      FOG       30  30 100 E6        30.00F VSB 5/8 WCI  24
CHURCHILL      CLOUDY    43  39  87 N25G32    29.95R
GILLAM         CLOUDY    43  39  87 N22G30    29.88R
$$
                ***SASKATCHEWAN***

CITY           SKY/WX    TMP DP  RH WIND       PRES   REMARKS
ESTEVAN        CLEAR     37  34  87 CALM      30.01F
KINDERSLEY     CLEAR     46  43  87 S9        29.83F
LLOYDMINSTER   CLEAR     46  41  81 SE8       29.79F
PRINCE ALBERT  CLEAR     36  36 100 E6        29.92F
REGINA         CLEAR     39  36  87 SE10      29.98F
YORKTON        CLEAR     37  34  87 CALM      29.99S
N. BATTLEFORD  CLEAR     52  39  62 E12       29.86F
LA RONGE       CLEAR     50  39  66 SE8       29.92S
SASKATOON      CLEAR     45  39  81 S6        29.92F
SWIFT CURRENT  CLEAR     50  45  81 S15       29.90F
$$
NOTE: THESE ARE AUTOMATED STATIONS WITH LIMITED QUALITY CONTROL
      "FAIR" INDICATES FEW OR NO CLOUDS BELOW 12,000 FEET WITH NO
      SIGNIFICANT WEATHER AND/OR OBSTRUCTIONS TO VISIBILITY.
      SKY/WX - SKY CONDITION AND SIGNIFICANT WEATHER.
      TMP - AIR TEMPERATURE.    DP   - DEWPOINT TEMPERATURE.
      RH  - RELATIVE HUMIDITY.  PRES - PRESSURE.
      HX  - HEAT INDEX.         WCI  - WIND CHILL INDEX.
$



USA.gov is the U.S. government's official web portal to all federal, state and local government web resources and services.